AO-07 1 07530U 74089B 20078.17510161 -.00000019 00000-0 16570-3 0 9995 2 07530 101.7892 48.4648 0012134 178.2975 193.2089 12.53642578 74791 UO-11 1 14781U 84021B 20079.76322651 .00000093 00000-0 17489-4 0 9991 2 14781 97.5955 96.1748 0009643 129.8640 230.3424 14.83150029939530 LO-19 1 20442U 90005G 20079.78604849 -.00000006 00000-0 14264-4 0 9998 2 20442 98.6826 26.7784 0012789 61.5104 298.7366 14.32947455575777 HUBBLE 1 20580U 90037B 20079.79552083 .00000445 00000-0 16077-4 0 9999 2 20580 28.4688 192.6567 0002548 202.3671 48.9596 15.09355033442497 MET-2/21 1 22782U 93055A 20079.15294174 -.00000001 00000-0 -14865-4 0 9995 2 22782 82.5473 305.2556 0023284 126.5855 345.7627 13.83824304340826 AO-27 1 22825U 93061C 20078.76739232 -.00000001 00000-0 17753-4 0 9993 2 22825 98.9233 78.9377 0007379 282.9006 77.1351 14.30080185381128 IO-26 1 22826U 93061D 20079.75433328 .00000002 00000-0 18613-4 0 9997 2 22826 98.9173 79.9068 0007869 266.2010 93.8272 14.30415203381472 FO-29 1 24278U 96046B 20077.92050244 -.00000006 00000-0 32446-4 0 9990 2 24278 98.5702 199.7955 0349338 251.8488 104.4325 13.53096557164753 NOAA-15 1 25338U 98030A 20078.77738486 .00000031 00000-0 31541-4 0 9990 2 25338 98.7268 104.2480 0010849 161.1723 198.9860 14.25955040136315 GO-32 1 25397U 98043D 20079.69765413 -.00000019 00000-0 11236-4 0 9997 2 25397 98.7201 21.9187 0001080 15.4866 344.6345 14.23681149127000 ISS 1 25544U 98067A 20079.81723000 .00001157 00000-0 28955-4 0 9996 2 25544 51.6444 70.6513 0006181 44.1008 19.9508 15.49258173218166 NO-44 1 26931U 01043C 20077.58349627 -.00000044 00000-0 15099-4 0 9996 2 26931 67.0533 19.4731 0006201 264.8005 95.2388 14.30570075964002 SO-50 1 27607U 02058C 20079.02883346 -.00000006 00000-0 19909-4 0 9998 2 27607 64.5543 290.8359 0059196 200.3182 159.5566 14.75616534927516 CO-55 1 27844U 03031E 20078.81935485 .00000048 00000-0 41237-4 0 9995 2 27844 98.6847 87.9119 0009087 323.2918 36.7637 14.22226347867259 CO-57 1 27848U 03031J 20079.24195891 .00000037 00000-0 36754-4 0 9992 2 27848 98.6917 88.8760 0009170 335.0096 25.0637 14.21814786867153 RS-22 1 27939U 03042A 20079.75325428 .00000131 00000-0 32070-4 0 9994 2 27939 98.0739 215.8426 0011477 277.8070 82.1839 14.66843712880860 NOAA-18 1 28654U 05018A 20078.77719560 .00000069 00000-0 61817-4 0 9990 2 28654 99.0561 134.3103 0015203 125.1819 235.0778 14.12496163764219 CO-58 1 28895U 05043F 20079.65995960 .00000116 00000-0 31078-4 0 9992 2 28895 97.9937 218.6079 0016447 199.5306 160.5269 14.63747126767703 Falconsat-3 1 30776U 07006E 20078.58730358 .00002012 00000-0 55062-4 0 9999 2 30776 35.4341 141.1921 0001807 73.1329 286.9596 15.37367318722847 CO-65 1 32785U 08021C 20079.78770846 .00000225 00000-0 29809-4 0 9992 2 32785 97.5681 71.7759 0014553 72.7460 287.5348 14.88432844644606 AAUSAT2 1 32788U 08021F 20079.76601384 .00000839 00000-0 81659-4 0 9995 2 32788 97.4932 88.2491 0011673 5.3035 354.8308 14.94977098646016 DO-64 1 32789U 08021G 20079.20287690 .00001519 00000-0 10392-3 0 9996 2 32789 97.4300 125.1171 0010491 263.4370 96.5664 15.07525784648314 CO-66 1 32791U 08021J 20079.74172860 .00000423 00000-0 48118-4 0 9991 2 32791 97.5384 77.8706 0014425 46.3795 313.8617 14.90993680645097 RS-30 1 32953U 08025A 20079.81861595 .00000037 00000-0 19437-3 0 9995 2 32953 82.5066 333.6637 0018102 250.2311 109.6818 12.43094661536494 PRISM 1 33493U 09002B 20077.81461669 .00000454 00000-0 45055-4 0 9996 2 33493 98.1370 14.3524 0015170 3.2999 356.8319 14.96937355606006 NOAA-19 1 33591U 09005A 20078.77475762 .00000023 00000-0 38113-4 0 9992 2 33591 99.1967 81.7592 0013506 333.9401 26.1088 14.12398972572593 TISAT-1 1 36799U 10035E 20079.73069481 .00000435 00000-0 49771-4 0 9993 2 36799 98.1850 246.5998 0010948 263.0420 96.9552 14.91294300525752 JUGNU 1 37839U 11058B 20078.81858439 .00000309 00000-0 22790-4 0 9994 2 37839 19.9608 112.4067 0019139 108.7891 48.8602 14.12674586436064 SRMSAT 1 37841U 11058D 20078.59947785 .00000309 00000-0 24941-4 0 9995 2 37841 19.9711 176.1840 0011839 326.6589 61.3239 14.10652884435411 AO-71 1 37854U 11061E 20079.67811850 .00001023 00000-0 59394-4 0 9990 2 37854 101.7079 124.6141 0158726 328.8107 30.3759 15.07076908458402 HRBE 1 37855U 11061F 20079.69839427 .00001090 00000-0 61720-4 0 9993 2 37855 101.7218 121.8404 0171430 341.3570 18.1411 15.06095146458166 ALMASAT-1 1 38078U 12006B 20079.71018013 .00214036 22430-4 39039-3 0 9992 2 38078 69.4168 184.8883 0063572 191.1149 283.6263 15.97367719440802 HORYU-2 1 38340U 12025D 20079.64806568 .00000128 00000-0 26582-4 0 9997 2 38340 98.2928 130.9518 0010695 333.4742 26.5918 14.75821381421718 RS-40 1 38735U 12041C 20078.78808579 -.00000038 00000-0 -34414-3 0 9995 2 38735 82.4745 57.1886 0017283 3.3207 356.7984 12.42578726346592 BEESAT-3 1 39135U 13015F 20079.78170972 .00001072 00000-0 61238-4 0 9994 2 39135 64.8677 230.9873 0044003 260.9989 98.6156 15.18005184381995 BEESAT-2 1 39136U 13015G 20079.72699365 .00000839 00000-0 51428-4 0 9991 2 39136 64.8662 235.8402 0028975 280.1601 79.6257 15.17383205381899 ZACUBE-1 1 39417U 13066B 20079.72389092 .00000182 00000-0 29195-4 0 9999 2 39417 97.5644 82.7465 0058080 210.8740 148.9054 14.81236418341755 TRITON-1 1 39427U 13066M 20078.95943260 .00000282 00000-0 52822-4 0 9991 2 39427 97.7151 44.9704 0113978 8.3467 351.9600 14.67962176338571 GOMX-1 1 39430U 13066Q 20079.78209710 .00000187 00000-0 42353-4 0 9994 2 39430 97.7820 23.7718 0152396 106.8607 254.9376 14.59360207336720 LO-74 1 39440U 13066AA 20078.98675908 .00000186 00000-0 32998-4 0 9995 2 39440 97.6244 66.5241 0078628 274.1240 85.0986 14.75974055340436 AO-73 1 39444U 13066AE 20079.57047258 .00000210 00000-0 32109-4 0 9998 2 39444 97.5596 84.7783 0057340 203.8869 155.9683 14.82080267340641 SPROUT 1 39770U 14029E 20079.76083246 .00000540 00000-0 65387-4 0 9998 2 39770 97.8895 186.4737 0007589 262.3722 97.6619 14.87649679315720 DUCHIFAT-1 1 40021U 14033M 20077.80054837 .00000324 00000-0 38816-4 0 9998 2 40021 97.9381 8.5066 0011665 225.8043 134.2217 14.90836666312234 NANOSATCBR1 1 40024U 14033Q 20077.77262081 .00000200 00000-0 26711-4 0 9993 2 40024 97.9243 5.1476 0010954 230.3099 129.7153 14.90016006312106 DTUSAT-2 1 40030U 14033W 20077.73797002 .00000218 00000-0 29437-4 0 9999 2 40030 97.9024 359.7359 0010631 233.6107 126.4129 14.88669803311872 EO-80 1 40032U 14033Y 20079.70297317 .00000201 00000-0 27647-4 0 9997 2 40032 97.9031 1.6976 0010659 227.0584 132.9739 14.88617990312157 ANTELSAT 1 40034U 14033AA 20079.19853174 .00000163 00000-0 31588-4 0 9997 2 40034 97.7267 299.1549 0057317 290.9450 68.5631 14.74219361309113 VELOX-1 1 40057U 14034E 20079.78958681 .00000227 00000-0 39252-4 0 9994 2 40057 98.2634 214.3746 0012220 75.9623 284.2947 14.77820199308393 DAURIA DX 1 1 40071U 14037C 20079.81542255 .00000074 00000-0 17010-4 0 9991 2 40071 98.4528 253.2799 0009756 67.6297 292.5951 14.81342533307985 HODOYOSHI-1 1 40299U 14070B 20079.77270034 .00000489 00000-0 23054-4 0 9993 2 40299 97.3273 158.5736 0014008 145.7096 328.0717 15.23965795298152 CHUBUSAT-1 1 40300U 14070C 20079.82352869 .00000544 00000-0 26405-4 0 9994 2 40300 97.2955 151.6311 0019905 164.2427 262.3947 15.22398541297870 QSAT-EOS 1 40301U 14070D 20079.73961623 .00001515 00000-0 59947-4 0 9995 2 40301 97.2989 156.2189 0026445 142.9484 335.0784 15.26673723298246 FIREBIRD FU3 1 40377U 15003B 20079.20233238 .00001544 00000-0 63567-4 0 9996 2 40377 99.1068 120.9106 0123563 255.2446 103.5065 15.19729533283607 FIREBIRD FU4 1 40378U 15003C 20079.64837963 .00001431 00000-0 59184-4 0 9995 2 40378 99.1070 121.5414 0123760 253.6161 105.1433 15.19745798283670 GRIFEX 1 40379U 15003D 20079.66779166 .00001125 00000-0 51555-4 0 9992 2 40379 99.1140 113.9910 0132322 277.0553 81.5642 15.16178862283245 NO-84 1 40654U 15025D 20078.37687448 .00010963 00000-0 13809-3 0 8819 2 40654 54.9898 359.9911 0119205 313.2347 45.8806 15.52176976154877 DEORBITSAIL 1 40719U 15032E 20078.17793277 .00000326 00000-0 53425-4 0 9996 2 40719 97.8813 329.0159 0017070 138.8151 221.4351 14.76934164252620 NUDT-PHONESAT 1 40900U 15049B 20079.75440061 .00001785 00000-0 77149-4 0 9990 2 40900 97.4346 91.4909 0011034 304.5447 108.5296 15.23751822249536 XW-2A 1 40903U 15049E 20079.75602103 .00001579 00000-0 38053-4 0 9992 2 40903 97.3005 128.6017 0011921 222.8591 273.2577 15.42749368252641 XW-2C 1 40906U 15049H 20079.76055984 .00000530 00000-0 31060-4 0 9992 2 40906 97.4768 82.4423 0013917 332.0271 201.2442 15.15968192248662 XW-2D 1 40907U 15049J 20079.75173291 .00000469 00000-0 27738-4 0 9992 2 40907 97.4758 82.1279 0013235 329.5665 116.4407 15.16186921248682 LILACSAT-2 1 40908U 15049K 20079.76142539 .00000071 00000-0 75285-5 0 9995 2 40908 97.4896 80.6116 0015421 338.4866 139.3720 15.13977152248425 XW-2E 1 40909U 15049L 20079.79116061 .00000874 00000-0 45926-4 0 9999 2 40909 97.4643 85.4931 0012350 321.2841 164.3004 15.18259329248927 XW-2F 1 40910U 15049M 20079.78753488 .00000729 00000-0 39379-4 0 9994 2 40910 97.4692 84.5996 0013330 318.6091 215.1046 15.17769133248738 XW-2B 1 40911U 15049N 20079.73127756 .00000750 00000-0 42335-4 0 9993 2 40911 97.4764 82.7972 0013163 330.3816 115.4574 15.16116282248573 DCBB 1 40912U 15049P 20079.70958326 .00000859 00000-0 42855-4 0 9993 2 40912 97.4509 88.5716 0013180 296.0241 154.4080 15.20140761249086 TW-1C 1 40926U 15051B 20079.74928535 .00017744 00000-0 20083-3 0 9993 2 40926 97.0973 131.0884 0008161 72.6620 22.7941 15.62442362253002 TW-1A 1 40928U 15051D 20079.85325231 .00002400 00000-0 57873-4 0 9992 2 40928 97.1194 109.8462 0011742 144.8628 203.5862 15.42128032251556 IO-86 1 40931U 15052B 20077.49197252 .00000678 00000-0 52654-5 0 9993 2 40931 5.9961 271.2559 0013249 55.3737 304.7768 14.76628550241645 LQSat 1 40958U 15057A 20078.16738885 -.00000000 00000-0 75320-5 0 9990 2 40958 97.8633 144.4671 0019558 84.2233 276.1204 14.73111275239065 ATHENOXAT-1 1 41168U 15077C 20077.48014570 .00001897 00000-0 64016-4 0 9991 2 41168 14.9892 16.1441 0011431 287.6921 72.2152 15.14175977235384 ChubuSat-2 1 41338U 16012B 20079.68348906 .00000331 00000-0 18948-4 0 9992 2 41338 31.0027 197.0299 0013897 307.2800 52.6568 15.00259524224248 ChubuSat-3 1 41339U 16012C 20079.75457693 .00000318 00000-0 17863-4 0 9995 2 41339 31.0113 194.3231 0013871 316.5499 43.4046 15.00426824224259 Horyu-4 1 41340U 16012D 20078.68854681 .00000472 00000-0 29018-4 0 9992 2 41340 31.0044 189.7851 0014084 327.8816 32.0961 15.01441142224223 OUFTI-1 1 41458U 16025C 20078.70127796 .00003088 00000-0 15699-3 0 9994 2 41458 98.0967 184.5463 0165082 154.9390 205.9966 15.06581201213818 e-st@r-II 1 41459U 16025D 20079.71761509 .00001610 00000-0 84581-4 0 9999 2 41459 98.0940 185.0975 0166561 153.3154 207.6789 15.06157217213939 AAUSAT4 1 41460U 16025E 20079.79000972 .00002493 00000-0 12516-3 0 9997 2 41460 98.0904 187.1950 0155608 142.9667 218.2428 15.08359571214129 LO-87 1 41557U 16033B 20079.72277697 .00001187 00000-0 46318-4 0 9993 2 41557 97.4034 170.5508 0014795 50.5712 309.6835 15.27811163212074 NuSat2 1 41558U 16033C 20079.80385833 .00001323 00000-0 48412-4 0 9994 2 41558 97.4079 172.6059 0013785 48.9151 311.3277 15.29770748212181 Lapan A3 1 41603U 16040E 20079.74290125 .00000184 00000-0 11687-4 0 9993 2 41603 97.3209 136.0387 0014039 149.5164 353.8446 15.19808510207517 Swayam 1 41607U 16040J 20077.74479976 .00001348 00000-0 58447-4 0 9996 2 41607 97.3290 139.2384 0014252 144.6533 215.5652 15.23976626207451 Pratham 1 41783U 16059A 20078.78568061 .00000038 00000-0 16669-4 0 9995 2 41783 98.0286 136.7420 0032415 240.4535 119.3435 14.63042520185624 AlSat 1N 1 41789U 16059G 20079.83796410 .00000040 00000-0 16530-4 0 9999 2 41789 98.0310 140.3770 0027288 224.2399 135.6609 14.64303123185913 ScatSat 1 41790U 16059H 20079.67652294 -.00000004 00000-0 98532-5 0 9998 2 41790 98.1729 122.5814 0005202 184.4228 175.6920 14.50903816184202 TY-1 1 41844U 16066D 20079.79651825 .00000725 00000-0 32158-4 0 9998 2 41844 97.4058 88.9683 0013545 304.7515 179.8770 15.24701944186608 Pegasus-1 1 41846U 16066F 20077.35717682 .00000251 00000-0 47618-4 0 9995 2 41846 098.6747 126.3954 0367801 147.2831 215.1727 14.37719752175731 CAS-2T 1 41847U 16066G 20078.75598655 .00000054 00000-0 17914-4 0 9995 2 41847 98.6673 128.3023 0366555 139.0440 223.8907 14.38047945176386 EO-88 1 42017U 17008BX 20078.75278586 .00001324 00000-0 53934-4 0 9993 2 42017 97.3691 147.6120 0004540 286.1823 73.8916 15.26229339171718 nSIGHT1 1 42726U 98067MF 20079.75078499 .00179078 23790-4 43463-3 0 9998 2 42726 51.6279 324.6859 0005435 187.2997 172.7932 15.95904943161299 CAS-4B 1 42759U 17034B 20079.71947249 .00000057 00000-0 16975-4 0 9997 2 42759 43.0178 160.0587 0010788 192.3614 306.7088 15.09765017152404 CAS-4A 1 42761U 17034D 20079.73645172 .00000137 00000-0 21806-4 0 9990 2 42761 43.0186 159.3237 0011289 193.6150 315.5649 15.09843723152407 UCLSat 1 42765U 17036A 20077.72546759 .00001110 00000-0 49618-4 0 9997 2 42765 97.3132 134.3822 0011064 358.3880 1.7319 15.23312516152021 NIUSat 1 42766U 17036B 20078.78496101 .00000855 00000-0 40866-4 0 9991 2 42766 97.3127 133.1315 0014871 344.9260 15.1531 15.21554377151904 LituanicaSAT 2 1 42768U 17036D 20079.11028884 .00001874 00000-0 80774-4 0 9994 2 42768 97.3180 135.5752 0013920 340.8107 19.2604 15.23717570152089 Aalto 1 1 42775U 17036L 20078.25065649 .00000665 00000-0 32328-4 0 9995 2 42775 97.3110 132.9625 0013328 347.1586 12.9309 15.21704021151809 URSA MAIOR 1 42776U 17036M 20078.71075649 .00000730 00000-0 35047-4 0 9992 2 42776 97.3121 133.6563 0013080 345.3652 14.7204 15.21872416151886 Max Valier Sat 1 42778U 17036P 20078.77756417 .00000782 00000-0 36730-4 0 9996 2 42778 97.3170 134.8719 0011652 349.5584 10.5409 15.22452712151932 Pegasus 1 42784U 17036V 20078.78358134 .00000997 00000-0 45260-4 0 9994 2 42784 97.3136 135.1382 0011541 354.9733 5.1386 15.23016786151970 NUDATSat 1 42787U 17036Y 20079.11257355 .00001438 00000-0 61724-4 0 9992 2 42787 97.3193 136.6528 0012753 348.9251 11.1704 15.24231489151935 SUCHAI 1 1 42788U 17036Z 20078.70811015 .00001199 00000-0 53065-4 0 9999 2 42788 97.3142 135.5718 0011032 354.1761 5.9346 15.23528362152069 SKCUBE 1 42789U 17036AA 20077.16879164 .00001121 00000-0 49980-4 0 9994 2 42789 097.3140 133.9507 0011090 000.0060 000.1175 15.23383460151748 VZLUSAT 1 1 42790U 17036AB 20077.39404437 .00001466 00000-0 62934-4 0 9994 2 42790 097.3162 134.9721 0010502 357.6652 002.4535 15.24215401151822 VENTA 1 1 42791U 17036AC 20077.40486186 .00001079 00000-0 48265-4 0 9999 2 42791 097.3138 134.2274 0010758 359.9745 000.1490 15.23375318151775 Robusta 1B 1 42792U 17036AD 20078.71013016 .00001145 00000-0 50736-4 0 9993 2 42792 97.3139 135.6766 0010515 355.3144 4.7994 15.23572096152000 D-SAT 1 42794U 17036AF 20079.05941838 .00000190 00000-0 22093-4 0 9999 2 42794 97.5053 116.1369 0124981 307.1170 51.8680 14.91235978149223 TechnoSat 1 42829U 17042E 20079.76244911 .00000247 00000-0 30240-4 0 9997 2 42829 97.5331 325.6874 0013147 219.4411 140.5852 14.91068078145928 QIKCOM-1 1 42983U 98067NF 20079.43790968 .00005048 00000-0 65503-4 0 9990 2 42983 51.6396 39.0292 0004610 79.7666 280.3847 15.60803137136225 AO-91 1 43017U 17073E 20079.19911105 .00000844 00000-0 71165-4 0 9998 2 43017 97.7259 354.9047 0257029 344.7472 14.6091 14.78843465125823 EcAMSat 1 43019U 98067NG 20079.44089626 .00010488 00000-0 11109-3 0 9990 2 43019 51.6413 27.8718 0004834 70.0524 290.0992 15.64759098218690 PICSAT 1 43132U 18004X 20079.77396565 .00001250 00000-0 54239-4 0 9997 2 43132 97.4552 151.6429 0009911 18.9086 341.2518 15.24188091121396 AO-92 1 43137U 18004AC 20079.73080504 .00000945 00000-0 42011-4 0 9996 2 43137 97.4539 151.4732 0009600 21.3324 338.8312 15.23944454121373 TianYi 2 1 43155U 18008A 20079.78471300 .00000554 00000-0 36304-4 0 9997 2 43155 97.4548 151.1325 0019466 97.0133 22.5615 15.11503331119379 Zhou Enlai 1 43156U 18008B 20079.78790044 .00000701 00000-0 45569-4 0 9994 2 43156 97.4598 150.9930 0016576 95.3659 25.5403 15.11034822119335 TianYi 6 1 43158U 18008D 20079.77755060 .00000358 00000-0 25405-4 0 9999 2 43158 97.4556 150.1512 0015487 94.3771 21.2483 15.10579271119289 S-Net G 1 43186U 18014G 20078.79824570 -.00000213 00000-0 -13548-4 0 9998 2 43186 97.6991 348.0853 0011249 161.7987 198.3639 14.96764885116131 S-Net H 1 43187U 18014H 20079.19917712 -.00000166 00000-0 -94095-5 0 9999 2 43187 97.6989 348.4610 0011292 160.4364 199.7293 14.96764863116190 S-Net J 1 43188U 18014J 20077.79513112 -.00000302 00000-0 -21325-4 0 9997 2 43188 97.6993 347.1053 0011134 164.9017 195.2539 14.96765006115982 S-Net K 1 43189U 18014K 20077.79551786 -.00000289 00000-0 -20218-4 0 9991 2 43189 97.6990 347.0754 0011133 164.8415 195.3143 14.96764433114532 FMN 1 1 43192U 18015A 20079.72779762 .00001867 00000-0 76864-4 0 9996 2 43192 97.4275 209.7524 0017176 49.5169 57.8120 15.25257142118221 Shaonian Xing 1 43199U 18015H 20079.80550098 .00001402 00000-0 57967-4 0 9999 2 43199 97.4063 208.3340 0018415 58.9749 85.6175 15.25511102118294 1KUNS-PF 1 43466U 98067NP 20079.26662901 .00107063 00000-0 46286-3 0 9999 2 43466 51.6318 6.7951 0003370 136.4685 223.6585 15.84097221106134 UBAKUSAT 1 43467U 98067NQ 20079.47276745 .00028817 00000-0 22955-3 0 9996 2 43467 51.6352 23.3452 0002407 73.5882 286.5380 15.70935368105941 EnduroSat One 1 43551U 98067NZ 20079.23058674 .00047021 00000-0 32735-3 0 9998 2 43551 51.6338 24.7054 0005740 111.4863 248.6748 15.73861913 96130 EQUISat 1 43552U 98067PA 20079.28554857 .00032970 00000-0 27422-3 0 9992 2 43552 51.6373 30.4307 0006083 104.9985 255.1686 15.69802991 96026 UiTMSat 1 1 43589U 98067PD 20079.11514636 .00031291 00000-0 24484-3 0 9995 2 43589 51.6341 30.6468 0005579 111.7626 248.3966 15.71303555 91742 Maya 1 1 43590U 98067PE 20079.23536921 .00037801 00000-0 29431-3 0 9991 2 43590 51.6343 29.9584 0005656 112.3565 247.8033 15.71324790 91698 Bhutan 1 1 43591U 98067PF 20079.27807568 .00040471 00000-0 31347-3 0 9990 2 43591 51.6349 29.5463 0005733 113.1638 246.9964 15.71415072 91702 SiriusSat 1 1 43595U 98067PG 20079.59096237 .00033667 00000-0 28129-3 0 9995 2 43595 51.6344 31.5984 0003921 86.7495 273.3951 15.69694444 90882 SiriusSat 2 1 43596U 98067PH 20079.20104036 .00034711 00000-0 29123-3 0 9997 2 43596 51.6352 34.3111 0004374 82.5503 277.5991 15.69575653 90815 Tanusha-3 1 43597U 98067PJ 20079.75968832 .00061641 00000-0 40073-3 0 9999 2 43597 51.6327 23.6273 0004271 105.0933 255.0539 15.75341450 91006 SurfSat 1 43614U 18070B 20078.76248391 .00002542 00000-0 66467-4 0 9997 2 43614 93.0260 117.1074 0013968 338.0303 22.0350 15.38745007 84530 CP-7 DAVE 1 43615U 18070C 20079.11122572 .00002503 00000-0 65700-4 0 9996 2 43615 93.0261 117.2468 0014042 335.8559 24.2035 15.38625342 84580 ELFIN-B 1 43616U 18070D 20078.77006756 .00003449 00000-0 87128-4 0 9991 2 43616 93.0224 117.0242 0014645 339.5938 20.4729 15.39762916 84565 ELFIN-A 1 43617U 18070E 20079.20301399 .00004416 00000-0 11100-3 0 9993 2 43617 93.0279 117.6400 0013730 334.5731 25.4847 15.39917003 84631 STARS-Me Mother 1 43640U 98067PQ 20079.62893196 .00017190 00000-0 18744-3 0 9994 2 43640 51.6362 43.1983 0005396 59.3094 300.8432 15.63486503 82666 CubeBel 1 1 43666U 18083E 20079.73096522 .00000979 00000-0 51319-4 0 9995 2 43666 97.4979 107.0468 0013822 318.1291 133.9641 15.18081887 77007 Changshagaoxin 1 43669U 18083H 20079.78446714 .00000754 00000-0 41390-4 0 9994 2 43669 97.4859 105.5666 0009511 311.3734 48.6681 15.17157479 76934 Ten-Koh 1 43677U 18084G 20079.11498794 .00000075 00000-0 13563-4 0 9993 2 43677 97.8705 196.4629 0017535 96.3965 263.9250 14.90257768 75481 PO-101 1 43678U 18084H 20079.31561725 .00000175 00000-0 23098-4 0 9996 2 43678 97.8703 197.7939 0011392 111.7397 248.5028 14.91614514 75584 IRVINE 01 1 43693U 18088D 20079.65579666 .00002207 00000-0 93389-4 0 9995 2 43693 85.0353 136.4465 0015458 259.6807 100.2692 15.22475277 75183 QO-100 1 43700U 18090A 20079.18174406 .00000122 00000-0 00000 0 0 9995 2 43700 0.0149 164.1063 0002366 232.7392 231.5310 1.00273009 5042 Reaktor Hello World 1 43743U 18096AA 20079.76389818 .00001084 00000-0 43272-4 0 9998 2 43743 97.4280 154.0719 0019741 85.3768 67.2273 15.27193295 72706 MinXSS-2 1 43758U 18099A 20078.14323939 .00000672 00000-0 65598-4 0 9997 2 43758 97.7141 151.5442 0016926 131.6661 228.6012 14.95596432 70307 AO-95 1 43770U 18099N 20078.94841777 .00000672 00000-0 66672-4 0 9998 2 43770 97.7138 151.8756 0015818 135.4984 224.7510 14.94929310 70390 RANGE-B 1 43772U 18099Q 20078.91265060 -.00000012 00000-0 41013-5 0 9994 2 43772 97.7201 152.2495 0015471 123.9214 236.3480 14.95099594 70388 RANGE-A 1 43773U 18099R 20079.13901929 .00000502 00000-0 51148-4 0 9993 2 43773 97.7080 151.7715 0014953 123.1087 237.1571 14.94922647 70414 MOVE-II 1 43780U 18099Y 20079.72433668 .00000183 00000-0 21788-4 0 9998 2 43780 97.7134 152.7931 0014824 131.3658 228.8841 14.95307119 70504 SNUSat 2 1 43782U 18099AA 20079.12678694 .00000092 00000-0 13579-4 0 9992 2 43782 97.7131 152.2304 0014064 122.7507 237.5071 14.95200076 70422 SnugLite 1 43784U 18099AC 20079.16781910 .00000128 00000-0 16799-4 0 9991 2 43784 97.7100 152.1228 0016366 129.8884 230.3778 14.95296011 70448 ITASat 1 1 43786U 18099AE 20077.76156122 .00000369 00000-0 38656-4 0 9991 2 43786 97.7156 151.0621 0016428 133.2688 226.9907 14.95277954 70233 EAGLET 1 1 43790U 18099AJ 20078.78040894 -.00000213 00000-0 -13933-4 0 9998 2 43790 97.7142 152.2793 0014574 134.3548 225.8870 14.95657809 70095 ESEO 1 43792U 18099AL 20077.44681791 -.00000398 00000-0 -30631-4 0 9997 2 43792 097.7119 150.8336 0014293 135.3424 224.8951 14.95576259069951 CSIM 1 43793U 18099AM 20079.72424283 .00000195 00000-0 22546-4 0 9991 2 43793 97.7100 153.0093 0014372 127.1332 233.1205 14.95951560 70276 Astrocast 0.1 1 43798U 18099AS 20079.78354371 -.00000250 00000-0 -17226-4 0 9995 2 43798 97.7132 153.3488 0013801 112.7400 247.5281 14.95832134 70547 JO-97 1 43803U 18099AX 20079.19168898 .00000101 00000-0 14276-4 0 9999 2 43803 97.7109 152.3110 0016361 129.8798 230.3864 14.95439784 70442 Suomi 100 1 43804U 18099AY 20079.12500831 .00000055 00000-0 10194-4 0 9993 2 43804 97.7107 152.2372 0016431 130.2482 230.0179 14.95431229 70446 Al Farabi 2 1 43805U 18099AZ 20079.77513580 -.00000016 00000-0 37055-5 0 9994 2 43805 97.7116 152.9374 0016506 127.8020 232.4698 14.95539651 70540 PWSat 2 1 43814U 18099BJ 20079.17031667 .00018447 00000-0 11936-2 0 9992 2 43814 97.7835 158.3815 0012741 136.8312 223.3919 15.08163047 70091 CHOMPTT 1 43855U 18104G 20078.89042054 .00000993 00000-0 40533-4 0 9998 2 43855 85.0353 235.0927 0018950 31.7051 328.5329 15.22810247 69749 ISAT 1 43879U 18111D 20079.68228953 .00000574 00000-0 56017-4 0 9993 2 43879 97.7073 348.5342 0013098 178.1909 181.9362 14.96173722 65060 UWE-4 1 43880U 18111E 20079.67686305 .00000327 00000-0 33888-4 0 9990 2 43880 97.7082 348.7523 0012261 179.1191 181.0055 14.96407432 65079 Sparrow 1 43881U 18111F 20078.79326183 -.00000170 00000-0 -98701-5 0 9992 2 43881 97.7090 347.9401 0012162 180.6545 179.4663 14.96465750 64932 Lume 1 1 43908U 18111AJ 20078.95492272 .00000965 00000-0 41415-4 0 9992 2 43908 97.2737 341.5212 0023072 101.9656 258.4171 15.24849356 68235 FO-98 1 43933U 19003B 20079.74151634 .00000603 00000-0 29283-4 0 9991 2 43933 97.2430 132.8604 0017463 192.0717 304.4731 15.21980231 64881 FO-99 1 43937U 19003F 20079.71443072 .00001034 00000-0 45001-4 0 9997 2 43937 97.2382 133.8270 0024277 177.5404 331.2699 15.24161235 64961 Delphini 1 1 44030U 98067PW 20079.21527054 .00022145 00000-0 24417-3 0 9990 2 44030 51.6359 51.6972 0005138 94.2777 265.8805 15.63009232 64381 MYSat 1 1 44045U 18092F 20079.36780083 .00002023 00000-0 67291-4 0 9996 2 44045 51.6444 119.5485 0011325 1.5979 358.5049 15.36187992 61449 AstroCast 0.2 1 44083U 19018F 20079.71838645 .00000769 00000-0 37197-4 0 9991 2 44083 97.4319 141.9608 0014673 123.0258 237.2390 15.21484241 53731 AISTechSat 3 1 44103U 19018AB 20079.69658977 .00000670 00000-0 31432-4 0 9996 2 44103 97.4186 142.0528 0014684 136.6587 341.7067 15.23014849 53777 AISat 1 1 44104U 19018AC 20079.17088835 .00000997 00000-0 34382-4 0 9999 2 44104 97.4729 148.2436 0058682 171.8402 188.3808 15.30896185 53991 Raavana-1 1 44329U 98067QE 20079.33993479 .00013262 00000-0 19291-3 0 9996 2 44329 51.6394 65.3596 0007025 31.8709 328.2706 15.56084041 42961 Uguisu 1 44330U 98067QF 20079.66937985 .00012997 00000-0 18958-3 0 9997 2 44330 51.6394 63.8069 0007019 31.8524 328.2891 15.56029306 42990 NepaliSat-1 1 44331U 98067QG 20079.65509254 .00013035 00000-0 18947-3 0 9993 2 44331 51.6393 63.7142 0007082 34.2858 325.8590 15.56121045 43003 Prox-1 1 44339U 19036A 20079.36309883 .00001029 00000-0 19499-3 0 9997 2 44339 24.0046 318.7206 0011366 247.4825 112.4483 14.52886374 39011 Oculus-ASR 1 44348U 19036K 20079.80816007 .00010459 00000-0 15727-3 0 9994 2 44348 28.5181 250.5691 0374766 72.5258 291.5931 15.00695259 40310 Armadillo 1 44352U 19036P 20079.76689786 .00014472 00000-0 21972-3 0 9994 2 44352 28.5318 248.5746 0365149 75.2164 288.8769 15.02613295 40271 NO-104 1 44354U 19036R 20078.80123014 .00010843 00000-0 16064-3 0 9991 2 44354 28.5284 255.2709 0372011 63.9900 299.8514 15.01585791 40163 NO-103 1 44355U 19036S 20079.75511416 .00024347 00000-0 35418-3 0 9992 2 44355 28.5279 244.4975 0357123 81.4951 282.5939 15.05323884 40359 CP9 1 44360U 19036X 20079.74898935 .00037130 -50829-5 45235-3 0 9993 2 44360 28.5131 236.1175 0346369 95.6449 268.3783 15.10569677 40314 Move-IIb 1 44398U 19038N 20079.69446536 .00001251 00000-0 75851-4 0 9999 2 44398 97.5260 42.1377 0027028 77.3050 283.1200 15.12115962 39016 SONATE 1 44400U 19038Q 20078.78355659 .00000507 00000-0 33245-4 0 9991 2 44400 97.5289 41.2592 0026952 78.9089 281.5170 15.11861214 38872 BeeSat 9 1 44412U 19038AC 20079.61082733 .00000853 00000-0 52951-4 0 9996 2 44412 97.5280 42.1308 0024482 81.4206 278.9797 15.12141446 38691 JAISAT-1 1 44419U 19038F 20078.79980218 .00000810 00000-0 49852-4 0 9995 2 44419 97.5280 41.5270 0023372 83.5317 276.8574 15.12622039 38896 LightSail-2 1 44420U 19036AC 20079.69850186 .00004520 00000-0 98110-3 0 9997 2 44420 24.0116 314.6042 0024557 234.1279 125.7005 14.54802903 37221 Taurus 1 1 44530U 19059C 20079.81398913 .00001605 00000-0 46868-3 0 9997 2 44530 98.5717 160.0432 0016314 73.7769 286.5207 14.45354146 27393 MO-106 1 44830U 19084G 20079.20006756 .00045009 00000-0 35949-3 0 9996 2 44830 96.9907 307.9542 0033364 220.3189 139.5600 15.70230406 16251 TRSI-Sat 1 44831U 19084H 20079.07216353 .00037905 00000-0 30378-3 0 9995 2 44831 96.9916 307.8407 0033425 220.0463 139.8335 15.70177203 16243 MO-105 1 44832U 19084J 20079.18229725 .00050285 00000-0 39380-3 0 9993 2 44832 96.9914 307.9855 0032753 219.1687 140.7206 15.70706721 16252 Duchifat 3 1 44854U 19089C 20079.63827087 .00000276 00000-0 28839-4 0 9990 2 44854 36.9677 269.1182 0007754 43.1979 316.9367 14.98996270 14814 OPS-SAT 1 44878U 19092F 20078.70878672 -.00000066 00000-0 00000 0 0 9996 2 44878 97.4681 263.5364 0013350 315.8355 44.1847 15.15308308 13791 FloripaSat 1 1 44885U 19093G 20079.72905574 .00000201 00000-0 32143-4 0 9998 2 44885 97.9632 156.4288 0014191 345.6727 14.4089 14.81984540 13410 SwampSat-2 1 45115U 19071E 20077.63662420 .00010004 00000-0 31467-3 0 9998 2 45115 51.6419 86.8955 0013630 84.7114 275.5423 15.33495621 7029 HuskySat-1 1 45119U 19071J 20079.13493134 .00001695 00000-0 63528-4 0 9993 2 45119 51.6437 79.6484 0012952 88.2702 271.9763 15.33232489 7262 QARMAN 1 45257U 98067RA 20077.72843956 .00005203 00000-0 98730-4 0 9994 2 45257 51.6420 80.8430 0008965 25.9710 334.1727 15.50092905 4274 AztechSat-1 1 45258U 98067RB 20079.21189863 .00005305 00000-0 10068-3 0 9991 2 45258 51.6418 73.4992 0006749 14.9705 345.1482 15.50049876 4474 /EX